Notices

What's New in latest Release from April 7th, 2021:

- Updated Glossary, including Speed of Maximum Gust, and Total Hourly Precipitation

- Updated national and regional climate services offices contacts and prices information

- Addition of station inventory lists for 1981-2010, 1971-2000, and 1961-1990 Normals.

If you haven't already, please take our survey and provide feedback about our website: https://eccc.sondage-survey.ca/f/LanguageSelection.aspx?s=442ca660-fcf1-47c0-95a9-59707d6fd709

Hourly Data Report for December 03, 2003

TORONTO CITY
ONTARIO

43°40'00.000" N
79°24'00.000" W
112.50 m
6158355
71508
XTO

Download Data

Hourly Data (December 2003)
Hourly Data Report for December 3, 2003
TIME
LST
Temp Definition
°C
Dew Point Definition
°C
Rel Hum Definition
%
Precip. Amount Definition
mm

Wind Dir Definition
10's deg

Wind Spd Definition
km/h
Visibility Definition
km
Stn Press Definition
kPa
Hmdx Definition


Wind Chill Definition


Weather Definition


00:00 -5.4 -7.9 83   LegendMM LegendMM LegendMM 101.90     LegendNANA
01:00 -5.3 -8.3 79   LegendMM LegendMM LegendMM 101.93     LegendNANA
02:00 -5.5 -8.8 78   LegendMM LegendMM LegendMM 101.95     LegendNANA
03:00 -5.6 -9.1 76   LegendMM LegendMM LegendMM 102.01     LegendNANA
04:00 -6.0 -8.7 81   LegendMM LegendMM LegendMM 102.02     LegendNANA
05:00 -6.2 -9.3 79   LegendMM LegendMM LegendMM 102.04     LegendNANA
06:00 -6.2 -9.7 76   LegendMM LegendMM LegendMM 102.06     LegendNANA
07:00 -6.0 -9.8 74   LegendMM LegendMM LegendMM 102.12     LegendNANA
08:00 -5.9 -10.2 72   LegendMM LegendMM LegendMM 102.16     LegendNANA
09:00 -4.7 -10.2 65   LegendMM LegendMM LegendMM 102.15     LegendNANA
10:00 -3.2 -9.3 63   LegendMM LegendMM LegendMM 102.19     LegendNANA
11:00 -2.5 -8.9 61   LegendMM LegendMM LegendMM 102.16     LegendNANA
12:00 -1.1 -8.4 58   LegendMM LegendMM LegendMM 102.10     LegendNANA
13:00 -0.4 -9.6 50   LegendMM LegendMM LegendMM 102.03     LegendNANA
14:00 0.3 -7.5 56   LegendMM LegendMM LegendMM 101.98     LegendNANA
15:00 0.5 -7.3 56   LegendMM LegendMM LegendMM 101.95     LegendNANA
16:00 0.7 -6.9 57   LegendMM LegendMM LegendMM 101.91     LegendNANA
17:00 0.1 -7.0 59   LegendMM LegendMM LegendMM 101.88     LegendNANA
18:00 0.1 -6.2 63   LegendMM LegendMM LegendMM 101.84     LegendNANA
19:00 0.1 -5.6 65   LegendMM LegendMM LegendMM 101.81     LegendNANA
20:00 -0.1 -4.8 71   LegendMM LegendMM LegendMM 101.77     LegendNANA
21:00 -0.3 -4.6 73   LegendMM LegendMM LegendMM 101.72     LegendNANA
22:00 -0.8 -4.9 74   LegendMM LegendMM LegendMM 101.69     LegendNANA
23:00 -1.3 -5.4 74   LegendMM LegendMM LegendMM 101.67     LegendNANA

Notes on Data Quality.

Legend

  • E = Estimated
  • M = Missing
  • NA = Not Available*
  • [empty] = Indicates an unobserved value
Date modified: